Valparaiso, IN

9:01 PM CDT on April 19, 2018 (GMT -0500)
Porter County Municipal

Weather History for KVPZ - August, 2013

Change the Weather History Date:

Tuesday, August 20, 2013

  Actual Average Record
Temperature  
Mean Temperature 72 °F 70 °F  
Max Temperature 85 °F 80 °F 91 °F (2010)
Min Temperature 59 °F 61 °F 51 °F (2002)
Degree Days  
Heating Degree Days 0 0  
Month to date heating degree days 12 0  
Since 1 June heating degree days 65 45  
Since 1 July heating degree days 28 4  
Cooling Degree Days 7 6  
Month to date cooling degree days 89 130  
Year to date cooling degree days 564 581  
Since 1 June cooling degree days 463 534  
Growing Degree Days 22 (Base 50)    
Moisture  
Dew Point 63 °F    
Average Humidity 78    
Maximum Humidity 100    
Minimum Humidity 49    
Precipitation  
Precipitation 0.00 in 0.15 in 1.98 in (2007)
Month to date precipitation 3.16 2.76  
Year to date precipitation 24.79 23.99  
Sea Level Pressure  
Sea Level Pressure 30.11 in    
Wind  
Wind Speed 4 mph (South)    
Max Wind Speed 14 mph    
Max Gust Speed 20 mph    
Visibility 6 miles    
Events Fog    
T = Trace of Precipitation, MM = Missing Value Source: NWS Daily Summary

Daily Weather History Graph

Daily Weather History Graph

Search for Another Location

Airport or City:

Astronomy

Aug. 20, 2013 Rise Set
Actual Time 6:02 AM CDT 7:39 PM CDT
Civil Twilight 5:32 AM CDT 8:08 PM CDT
Nautical Twilight 4:57 AM CDT 8:44 PM CDT
Astronomical Twilight 4:19 AM CDT 9:21 PM CDT
Moon 7:10 PM CDT 5:32 AM CDT
Length of Visible Light 14h 35m
Length of Day
13h 37m
Full, 100% of the Moon is Illuminated
Aug 20
Full
Aug 20
Full
Aug 28
Last Quarter
Sep 5
New
Sep 12
First Quarter

Hourly Weather History & Observations

Time (CDT) Temp. Heat Index Dew Point Humidity Pressure Visibility Wind Dir Wind Speed Gust Speed Precip Events Conditions
12:53 AM 66.0 °F - 61.0 °F 84% 30.09 in 9.0 mi Calm Calm - N/A   Clear
1:53 AM 66.0 °F - 61.0 °F 84% 30.08 in 7.0 mi Calm Calm - N/A   Clear
2:53 AM 63.0 °F - 61.0 °F 93% 30.08 in 5.0 mi Calm Calm - N/A   Clear
3:53 AM 62.1 °F - 60.1 °F 93% 30.09 in 3.0 mi Calm Calm - N/A   Clear
4:31 AM 60.8 °F - 59.0 °F 94% 30.10 in 2.5 mi Calm Calm - N/A   Clear
4:53 AM 60.1 °F - 59.0 °F 96% 30.10 in 1.2 mi Calm Calm - N/A   Clear
5:29 AM 60.8 °F - 57.2 °F 88% 30.12 in 0.8 mi Calm Calm - N/A   Mist
5:39 AM 60.8 °F - 59.0 °F 94% 30.12 in 0.2 mi Calm Calm - N/A Fog Fog
5:53 AM 59.0 °F - 57.9 °F 96% 30.11 in 0.2 mi Calm Calm - N/A Fog Fog
6:53 AM 60.1 °F - 59.0 °F 96% 30.13 in 0.5 mi Calm Calm - N/A Fog Fog
7:09 AM 62.6 °F - 60.8 °F 94% 30.14 in 1.0 mi Calm Calm - N/A   Mist
7:14 AM 62.6 °F - 60.8 °F 94% 30.14 in 0.8 mi Calm Calm - N/A   Clear
7:22 AM 62.6 °F - 62.6 °F 100% 30.14 in 1.2 mi Calm Calm - N/A   Clear
7:39 AM 64.4 °F - 62.6 °F 94% 30.15 in 2.5 mi Calm Calm - N/A   Clear
7:46 AM 66.2 °F - 64.4 °F 94% 30.15 in 3.0 mi Calm Calm - N/A   Clear
7:53 AM 66.0 °F - 64.0 °F 93% 30.14 in 4.0 mi Calm Calm - N/A   Clear
8:53 AM 72.0 °F - 64.9 °F 78% 30.16 in 8.0 mi SSW 3.5 mph - N/A   Clear
9:53 AM 77.0 °F - 64.9 °F 66% 30.15 in 10.0 mi SSW 8.1 mph - N/A   Clear
10:53 AM 78.1 °F - 64.9 °F 64% 30.15 in 10.0 mi South 8.1 mph - N/A   Clear
11:53 AM 80.1 °F 81.7 °F 64.0 °F 58% 30.14 in 10.0 mi SW 6.9 mph - N/A   Partly Cloudy
12:53 PM 82.9 °F 84.4 °F 64.0 °F 53% 30.13 in 10.0 mi SSW 8.1 mph - N/A   Scattered Clouds
1:53 PM 84.0 °F 85.4 °F 64.0 °F 51% 30.12 in 10.0 mi Variable 6.9 mph - N/A   Partly Cloudy
2:53 PM 84.0 °F 84.9 °F 63.0 °F 49% 30.10 in 10.0 mi SW 13.8 mph 19.6 mph N/A   Partly Cloudy
3:53 PM 84.0 °F 84.9 °F 63.0 °F 49% 30.08 in 10.0 mi Variable 4.6 mph - N/A   Clear
4:53 PM 82.9 °F 84.6 °F 64.9 °F 54% 30.08 in 10.0 mi SE 3.5 mph - N/A   Scattered Clouds
5:53 PM 82.0 °F 83.8 °F 64.9 °F 56% 30.07 in 10.0 mi SSE 6.9 mph - N/A   Clear
6:53 PM 80.1 °F 82.1 °F 66.0 °F 62% 30.07 in 10.0 mi SSE 3.5 mph - N/A   Clear
7:53 PM 77.0 °F - 64.9 °F 66% 30.08 in 10.0 mi SSE 4.6 mph - N/A   Clear
8:53 PM 75.9 °F - 64.9 °F 69% 30.08 in 10.0 mi Calm Calm - N/A   Clear
9:53 PM 73.9 °F - 64.9 °F 73% 30.09 in 10.0 mi SSE 3.5 mph - N/A   Clear
10:53 PM 73.0 °F - 64.9 °F 76% 30.09 in 10.0 mi SSE 3.5 mph - N/A   Clear
11:53 PM 73.0 °F - 64.0 °F 73% 30.09 in 10.0 mi South 4.6 mph - N/A   Clear